Regional Weather Roundup
Issued by NWS

Home | Current Version | Previous Version | Text Only | Print | Product List | Glossary Off
Versions: 1 2 3 4 5 6 7 8 9 10 11 12 13 14 15 16 17 18 19 20 21 22 23 24 25 26 27 28 29 30 31 32 33 34 35 36 37 38 39 40 41 42 43 44 45 46 47 48 49 50

000
ASUS43 KFSD 121402
RWRSD

WEATHER ROUNDUP FOR SOUTH DAKOTA
NATIONAL WEATHER SERVICE SIOUX FALLS SD
900 AM CDT SAT JUL 12 2014

NOTE: "FAIR" INDICATES FEW OR NO CLOUDS BELOW 12,000 FEET WITH NO
SIGNIFICANT WEATHER AND/OR OBSTRUCTIONS TO VISIBILITY.


SDZ001>005-009-010-012>017-121500-
NORTHWEST AND NORTH CENTRAL SOUTH DAKOTA

CITY           SKY/WX    TMP DP  RH WIND       PRES   REMARKS
BUFFALO          N/A     65  59  81 E3        30.11R
FAITH            N/A     64  61  90 NE12      30.13S
MOBRIDGE       LGT RAIN  64  63  96 NE6       30.10F
$$

SDZ012>016-024>037-041>051-057-063-072>074-121500-
SOUTHWEST AND SOUTH CENTRAL SOUTH DAKOTA

CITY           SKY/WX    TMP DP  RH WIND       PRES   REMARKS
RAPID CTY ARPT CLOUDY    61  59  93 N8        30.17R
PIERRE         CLOUDY    65  61  87 NE6       30.09R
CUSTER         MOSUNNY   65  54  67 N3        30.27R
PHILIP         CLOUDY    65  60  84 E12       30.15R
PINE RIDGE     CLOUDY    64  62  93 S3        30.17R
WINNER         CLOUDY    68  64  87 N14       30.09R
$$

SDZ004>011-016>023-039-040-121500-
NORTHEAST SOUTH DAKOTA

CITY           SKY/WX    TMP DP  RH WIND       PRES   REMARKS
ABERDEEN       HVY RAIN  62  61  96 W7        30.13R FOG
WATERTOWN      RAIN      62  60  93 NW12      30.11R FOG
SISSETON         N/A     66  61  84 NW6       30.05R
$$

SDZ017-020-022-023-036>040-048>070-121500-
SOUTHEAST SOUTH DAKOTA

CITY           SKY/WX    TMP DP  RH WIND       PRES   REMARKS
SIOUX FALLS    CLOUDY    72  66  81 NW12      30.04R
HURON          LGT RAIN  67  67 100 NW9       30.08R
CHAMBERLAIN    DRIZZLE   67  65  93 NE10      30.09R
MITCHELL       CLOUDY    71  63  75 E13G21    30.05S
YANKTON        CLOUDY    66  64  94 NW8       30.05R
$$

ABBREVIATIONS USED IN REMARKS
   TC - TEMPERATURE IN CELSIUS
  WCI - WIND CHILL INDEX
   HX - HEAT INDEX
  VSB - VISIBILITY



USA.gov is the U.S. government's official web portal to all federal, state and local government web resources and services.